Wind_Speed
40 39 39 38 38 40 41 36 27 23 27 31 31 33 34 32 31 31 32 30 28 27 26 25 25 24 25 25 24 23 22 22 22 21 21 21 22 21 21 20 20 20 20 21 21 22 22 22 23 23 23 22 21 21 21 20 20 20 21 21 22 21 21 22 21 21 22 22 21 21 21 21 20 19 18 18 18 18 18 18 18 18 18 18 19
39 40 40 40 40 41 39 34 27 26 30 32 31 31 33 33 32 33 34 34 32 30 28 27 27 26 27 26 26 25 23 22 22 22 23 24 24 23 22 22 22 22 22 23 23 23 23 24 25 25 24 23 22 22 21 21 22 22 22 22 23 23 22 22 21 21 21 21 20 20 21 20 20 19 18 17 17 17 18 18 18 18 19 19 19
37 40 41 41 41 40 37 33 31 31 31 31 31 31 33 34 34 34 35 35 34 34 32 30 28 27 27 27 27 27 25 23 23 23 24 25 25 25 24 23 24 24 24 25 25 24 24 24 25 25 24 24 23 22 22 22 22 22 22 23 24 24 23 22 21 20 20 19 18 19 20 19 19 18 17 17 17 17 18 18 18 19 19 19 19
35 39 41 42 42 40 37 34 34 33 32 31 32 33 33 33 33 34 35 35 35 36 36 34 31 29 28 27 27 28 26 25 25 24 24 25 26 25 25 25 26 26 26 26 26 26 25 24 24 24 25 25 24 23 23 23 23 23 24 25 24 23 22 22 21 20 19 19 19 20 19 18 18 18 17 17 18 18 18 18 18 18 18 19 20
35 37 40 41 42 41 38 35 33 34 34 33 33 33 33 32 32 33 34 35 34 36 36 36 35 33 30 28 28 28 27 27 27 26 25 26 26 25 25 26 28 29 29 28 27 26 24 24 24 25 26 26 24 23 24 24 25 25 25 24 23 22 22 22 21 20 20 20 20 20 19 17 17 18 18 18 18 18 18 18 18 18 19 20 22
36 37 38 41 42 41 39 36 34 35 36 35 34 33 32 32 33 33 34 34 34 35 36 36 35 34 32 31 29 29 29 29 28 28 27 26 25 25 25 27 29 30 29 28 28 26 24 23 24 25 26 24 23 25 25 26 26 26 25 23 22 22 23 23 22 21 20 20 20 20 18 17 17 18 19 19 18 18 18 19 19 20 21 22 24
38 37 37 39 41 42 41 38 36 37 38 37 35 33 31 32 34 35 34 34 33 34 36 36 35 34 34 33 31 30 30 30 29 29 28 27 26 25 24 26 28 28 29 29 28 26 24 23 23 25 25 24 24 25 26 27 27 26 24 23 22 23 24 24 22 21 21 20 20 19 18 18 18 19 19 19 19 20 20 21 22 23 25 26 27
38 37 36 38 40 42 42 40 38 39 39 37 35 33 32 32 34 35 35 34 33 33 35 37 37 36 35 34 34 33 32 31 30 28 28 28 27 25 25 26 27 28 29 30 30 27 25 23 23 25 25 24 25 25 26 27 26 24 23 22 23 24 25 24 22 22 21 21 20 20 19 19 19 19 19 20 20 22 23 24 25 26 27 28 28
37 37 36 36 39 42 43 41 40 41 40 38 36 34 33 33 34 34 34 35 34 33 33 35 37 37 35 34 34 34 34 33 30 29 29 28 27 27 28 28 28 29 30 31 31 30 27 25 24 25 25 24 24 24 25 27 26 24 24 24 24 24 24 23 22 22 22 21 20 20 20 20 20 20 20 21 22 23 25 26 27 28 28 28 28
36 36 36 36 38 40 42 43 43 42 39 37 36 35 34 34 34 33 33 34 36 35 33 33 34 35 34 34 34 34 34 33 32 31 31 29 29 30 31 30 30 31 32 32 31 31 30 28 26 26 26 25 25 25 26 27 27 26 26 24 23 23 22 22 22 22 22 22 21 21 21 21 21 21 22 23 24 26 27 28 28 28 28 28 28
35 35 35 36 37 39 42 43 44 43 40 37 35 34 34 34 34 33 32 33 34 35 33 32 32 33 33 32 32 32 32 33 32 33 33 32 31 32 33 32 32 33 33 32 32 32 32 30 29 29 28 27 26 26 27 28 28 27 26 24 24 24 23 22 22 22 22 22 22 22 22 22 22 23 23 24 26 27 28 28 28 28 28 29 29
34 34 34 35 37 39 41 43 44 43 41 38 35 34 34 34 33 32 32 32 33 34 33 31 31 33 34 32 31 31 31 31 32 33 33 33 33 34 34 34 34 33 33 33 33 34 33 32 31 31 31 29 28 27 27 28 27 26 25 25 25 24 22 21 21 22 23 23 23 23 23 23 24 25 25 26 27 28 28 29 29 29 29 29 29
33 34 34 35 36 38 41 42 43 43 41 39 37 35 35 35 33 32 32 32 33 33 31 30 30 32 34 33 33 33 32 31 30 31 32 33 35 36 36 35 34 33 33 33 34 34 34 32 32 33 32 31 30 29 28 28 28 26 25 25 25 24 22 21 21 22 23 24 24 24 24 25 25 26 27 27 28 28 28 28 29 29 30 29 29
33 34 34 35 36 38 39 41 42 42 40 39 38 37 37 36 34 33 33 34 33 32 30 30 30 32 33 34 34 35 34 31 29 30 32 34 36 38 38 37 35 33 33 33 33 34 34 33 33 34 33 33 32 31 30 30 29 27 26 26 26 24 22 22 22 23 24 24 25 25 25 26 26 27 28 28 28 29 28 28 29 30 30 29 29
32 33 34 34 35 37 38 40 41 41 40 39 38 37 38 37 36 34 34 34 33 32 30 31 32 33 34 34 34 35 34 31 30 31 32 34 36 39 40 38 35 33 33 32 32 33 34 34 35 35 34 34 33 33 32 32 29 27 27 27 26 23 22 23 23 24 25 25 25 26 26 27 27 28 29 29 29 29 29 29 29 30 30 30 29
31 33 33 34 35 36 37 39 40 40 40 39 38 37 37 37 37 36 35 34 34 33 33 33 33 35 36 36 34 34 33 31 31 33 33 34 37 39 39 38 36 34 33 33 33 33 34 35 36 35 35 35 35 34 34 32 29 27 27 26 25 24 23 24 24 24 25 26 26 26 27 27 28 29 29 29 29 29 29 29 30 30 31 31 30
30 32 32 33 34 35 36 37 39 39 39 38 37 37 36 36 37 37 35 34 34 34 35 35 34 35 36 35 34 34 32 31 32 33 34 36 37 38 38 38 37 35 33 34 35 35 35 36 36 35 36 35 34 34 34 31 28 27 27 26 24 24 24 24 25 25 26 26 26 27 27 28 29 29 29 29 29 30 30 30 31 31 32 33 33
29 30 31 32 33 34 35 35 37 38 38 37 37 37 37 37 37 36 34 34 35 35 35 35 34 34 34 33 34 34 32 31 33 33 34 36 38 38 37 37 36 35 34 34 35 35 37 37 37 37 37 36 35 35 33 29 27 27 26 25 24 24 24 25 26 26 26 26 26 27 28 28 29 29 29 29 29 30 31 31 31 32 33 34 35
28 28 29 30 31 33 33 34 36 37 37 37 37 37 37 37 36 35 34 35 36 36 36 35 33 32 32 32 34 34 32 32 33 33 34 36 38 38 36 35 35 35 32 33 35 35 36 37 38 38 38 38 38 35 31 28 27 27 26 24 24 24 25 25 26 26 26 26 27 27 28 29 29 29 29 29 30 31 31 31 31 33 34 35 36
26 26 26 28 30 31 32 33 35 36 36 37 36 36 37 36 35 34 34 35 36 37 36 36 34 32 32 32 33 33 31 31 32 33 34 35 35 34 34 34 35 33 31 33 35 34 35 37 37 37 37 39 38 34 30 28 28 27 25 24 23 24 25 25 26 26 26 27 27 28 28 29 29 29 29 30 31 31 31 31 32 33 34 35 35
23 24 26 27 29 30 31 32 34 35 36 36 36 36 36 35 34 34 35 36 36 36 36 37 35 33 32 32 32 31 29 28 30 31 32 32 32 33 35 36 35 32 31 33 35 36 37 38 37 37 38 38 36 33 30 29 28 25 23 23 23 25 25 25 25 26 26 27 27 28 29 29 29 29 30 30 31 31 31 32 33 34 35 35 36
22 25 27 27 27 29 31 32 33 34 35 35 36 36 35 35 34 34 35 35 35 35 36 36 34 33 32 32 31 31 28 27 28 29 30 31 32 33 36 36 33 32 32 34 36 38 38 36 36 37 36 35 34 32 31 28 25 22 22 23 24 25 25 25 25 26 26 27 28 28 29 29 29 30 30 30 31 31 32 33 34 35 36 36 37
22 25 26 26 26 27 31 32 32 33 34 34 35 34 33 33 32 33 34 35 34 34 34 33 33 33 32 31 31 30 28 28 29 30 32 33 33 33 35 34 32 31 32 33 34 34 34 33 34 33 32 32 32 31 28 24 22 21 22 23 23 24 24 25 25 26 27 28 28 29 29 30 30 30 31 31 32 32 33 34 35 36 37 37 37
21 24 26 26 25 27 29 30 29 31 32 33 32 31 31 30 30 31 32 32 32 32 32 32 33 33 33 33 32 30 28 28 30 31 33 34 34 33 32 31 29 30 31 32 31 30 30 30 31 30 30 30 29 25 23 21 21 22 22 21 22 23 24 25 27 28 28 28 29 29 30 30 31 31 32 32 32 33 34 35 36 37 37 37 38
22 23 25 26 26 27 29 29 27 28 29 29 29 28 28 28 28 29 30 31 31 32 32 33 34 34 34 34 31 28 28 29 30 31 33 34 34 31 29 27 28 30 31 30 28 27 27 28 29 29 28 26 23 21 20 20 20 20 20 21 22 24 25 27 28 28 28 29 29 30 30 31 32 32 33 33 34 35 36 36 36 37 37 37 37
23 24 25 25 27 28 29 28 25 25 26 27 27 26 25 25 25 26 28 30 31 32 33 34 34 33 32 30 26 27 30 32 30 30 32 33 32 28 25 26 27 28 29 27 26 26 27 27 27 27 24 21 19 19 19 19 18 19 20 22 24 25 27 27 28 28 29 30 30 31 32 32 33 33 34 34 35 36 36 36 37 36 36 36 36
19 22 23 24 25 27 28 26 24 23 24 25 26 25 26 25 24 24 26 28 29 31 32 31 31 30 28 26 26 27 31 31 28 26 28 29 27 23 21 23 25 24 25 25 24 24 24 24 24 22 20 18 18 18 18 18 19 20 22 24 25 26 27 27 28 29 30 31 32 33 33 34 33 34 35 35 36 37 37 37 37 36 36 36 36
15 18 21 22 24 25 25 25 23 23 24 25 25 27 28 27 25 23 23 25 26 28 28 28 28 27 25 25 26 27 29 29 24 24 28 29 25 22 21 21 23 24 24 23 22 21 21 22 21 20 19 18 18 18 18 20 21 22 23 24 25 26 27 28 29 30 31 32 33 34 34 34 34 35 36 36 37 37 36 36 36 36 36 36 37
15 15 17 20 23 24 24 25 25 25 25 24 24 26 27 27 26 24 22 22 23 24 24 24 25 24 23 24 26 27 28 25 20 25 33 30 21 20 21 21 21 23 22 21 20 20 20 20 19 19 18 18 19 19 20 21 22 23 24 25 26 27 28 29 30 32 33 34 34 34 34 34 35 35 36 36 36 36 36 35 35 36 36 37 37
15 13 15 18 20 21 22 23 23 24 23 22 22 24 25 25 25 24 23 23 23 23 23 23 24 23 23 25 27 27 26 23 22 29 35 28 18 17 20 20 20 21 20 19 20 19 19 19 18 18 19 19 20 21 21 21 22 23 25 26 27 28 29 31 32 33 34 34 33 33 34 34 35 35 35 35 35 34 35 35 36 36 37 37 39
14 12 12 15 18 18 18 19 18 17 18 19 20 21 22 22 22 22 22 23 24 24 24 24 24 25 24 25 27 27 26 24 27 32 34 29 22 19 19 19 19 18 17 18 18 18 18 18 18 18 19 20 21 21 21 22 23 25 26 27 28 30 32 33 33 34 33 33 33 33 33 33 34 34 34 34 34 34 35 35 36 37 38 39 40
15 11 9 12 15 16 17 16 15 13 13 14 16 17 16 17 19 20 21 22 23 23 24 23 23 25 25 25 26 27 26 26 28 30 30 28 25 22 19 19 19 17 16 17 17 17 17 17 18 19 19 20 21 21 22 24 25 26 27 29 30 32 33 33 33 32 32 31 31 32 32 33 33 32 32 33 34 35 36 36 37 38 39 40 41
15 13 11 10 11 14 16 15 14 13 11 10 11 14 14 15 16 17 18 20 21 21 21 21 22 24 24 24 24 25 26 27 28 27 26 24 23 20 18 19 19 18 17 17 17 17 17 17 18 19 21 21 22 23 24 25 26 27 29 30 31 32 32 31 30 30 30 30 31 31 31 31 32 32 33 34 35 35 36 37 38 39 39 40 40
14 14 14 12 11 12 13 12 12 13 12 9 9 11 13 14 15 15 16 17 18 18 19 21 23 24 24 24 24 24 24 25 26 24 22 20 19 19 18 19 19 18 18 18 18 19 19 19 20 21 22 22 23 24 25 26 27 29 30 30 30 30 29 29 29 29 29 30 30 30 31 31 32 33 34 34 35 36 37 38 38 39 39 40 40
13 14 16 15 14 13 12 10 8 9 10 8 7 8 10 11 12 14 15 16 17 18 18 19 22 23 23 22 22 23 24 24 23 22 21 19 19 20 20 20 19 19 19 20 20 21 21 21 22 23 23 23 24 26 27 28 28 29 30 29 28 28 29 29 29 29 29 30 30 31 32 32 33 34 34 35 36 36 37 38 38 39 39 40 40
15 14 15 15 14 13 11 8 5 5 6 6 6 6 6 7 8 10 13 15 18 19 19 18 18 19 21 22 22 22 22 22 21 22 21 20 20 21 21 21 21 21 21 22 22 22 23 23 24 24 24 25 26 27 28 28 28 28 28 28 28 28 29 29 29 29 29 30 31 32 33 33 34 35 35 35 36 36 37 38 39 39 40 40 40
18 16 15 14 13 11 9 6 4 3 4 4 4 4 5 6 5 6 8 12 15 16 17 16 15 15 16 18 19 20 19 19 19 20 20 20 20 21 21 21 22 23 23 23 23 24 24 24 25 25 26 27 28 28 27 27 27 27 27 28 29 29 29 29 29 30 31 32 33 33 34 34 35 35 35 36 36 37 38 38 39 39 39 40 40
20 17 15 14 12 10 8 6 4 3 3 3 3 3 4 5 5 6 6 8 11 12 12 13 13 13 13 14 16 17 16 17 18 19 19 19 19 20 21 22 23 23 23 23 24 24 25 25 25 26 28 28 28 27 27 27 27 28 28 29 29 30 30 31 32 33 33 33 34 34 34 35 35 35 35 35 36 37 38 38 38 38 39 39 40
21 18 15 14 13 11 9 7 6 5 4 4 3 3 4 5 5 6 6 7 9 9 9 10 11 12 12 12 14 15 15 16 18 19 19 19 19 20 21 22 22 23 23 23 24 25 25 26 27 28 28 28 27 27 27 27 29 30 30 30 31 31 32 33 34 34 34 34 34 35 35 35 34 34 35 36 36 37 37 37 38 38 39 39 40
22 20 17 15 15 13 11 9 7 6 5 5 5 5 6 6 6 6 8 10 10 10 10 11 12 12 12 13 14 16 17 17 19 19 19 19 19 20 21 22 22 23 23 23 24 25 25 26 27 27 27 26 27 27 28 29 31 32 32 33 33 33 34 35 35 35 35 35 35 34 34 34 34 34 35 35 36 36 37 37 37 38 39 40 41
23 22 19 17 16 14 12 11 9 7 6 6 6 8 9 9 9 9 10 11 11 11 12 12 12 13 14 16 17 19 19 19 19 19 19 19 20 21 22 23 23 23 23 23 24 25 26 26 26 25 25 26 27 29 30 31 32 34 35 35 35 35 35 36 36 36 36 35 34 33 33 33 34 34 35 35 35 36 36 37 38 39 40 41 42
23 23 21 19 18 16 14 12 10 8 7 6 7 9 10 11 11 12 12 12 12 12 13 13 14 15 16 18 20 21 21 21 21 22 22 21 22 24 24 25 24 24 24 25 25 26 26 26 25 25 27 28 30 31 32 33 35 36 36 36 36 36 37 37 37 37 36 34 33 32 33 33 34 34 34 34 35 36 36 37 38 39 40 41 42
22 23 22 21 20 18 16 14 12 10 9 8 9 10 11 12 13 14 15 14 14 13 14 14 15 16 18 19 20 22 23 24 26 27 25 24 25 26 27 27 27 26 26 26 26 26 26 26 26 28 30 31 32 33 33 35 36 37 38 38 39 39 38 38 37 36 35 33 32 32 33 33 33 33 33 33 34 36 37 38 39 40 41 42 43
21 22 22 21 20 19 18 16 15 13 12 11 10 11 12 13 14 15 16 16 15 15 15 16 17 17 19 21 22 23 25 27 29 30 29 29 29 29 29 29 29 30 29 29 28 28 28 28 28 30 32 33 33 35 36 37 39 40 41 41 40 40 39 39 37 35 33 32 31 32 32 32 32 32 33 33 35 36 37 38 40 41 42 42 43
22 22 22 21 20 20 19 18 18 17 15 14 13 12 12 13 14 15 16 17 16 16 16 17 18 19 20 22 23 25 28 30 32 34 35 35 34 33 32 31 31 32 32 31 31 31 31 30 30 31 32 34 35 37 39 40 42 43 42 42 41 41 40 39 36 34 32 32 31 31 31 31 31 32 33 34 36 37 38 39 40 41 42 43 43
20 20 21 22 21 21 20 20 19 18 17 16 15 14 13 13 14 16 16 16 16 17 17 18 20 22 23 23 24 27 31 35 36 38 38 38 38 37 36 35 34 33 33 33 33 33 33 33 32 33 35 36 37 39 41 42 43 43 43 43 43 42 40 37 35 33 33 32 31 30 30 30 31 33 34 35 37 38 39 40 41 42 42 43 44
16 17 17 19 20 20 21 20 20 19 18 17 16 15 14 14 14 16 17 17 17 19 20 21 23 24 25 26 27 30 34 37 38 40 41 42 43 42 40 37 34 32 32 33 34 35 35 34 35 36 38 39 41 42 44 45 46 47 46 45 43 40 36 34 33 32 31 29 29 29 30 31 32 34 35 37 38 39 40 41 42 43 44 44 45
14 14 15 16 16 17 18 19 19 18 17 17 16 15 15 14 15 16 17 18 19 20 22 23 24 26 28 31 33 35 36 37 39 41 43 43 41 39 37 34 32 31 32 34 36 37 38 38 39 40 41 43 44 46 48 49 49 48 45 41 37 34 31 30 29 28 27 27 28 29 30 32 34 35 37 38 39 40 41 42 43 43 44 45 46
15 15 15 15 16 16 16 17 17 17 16 15 15 14 15 15 15 16 17 18 19 20 22 23 23 23 24 26 28 31 35 38 39 39 38 36 34 33 32 31 30 31 33 35 36 38 40 41 41 42 43 44 44 45 45 44 42 38 34 31 28 26 25 25 25 26 27 28 29 30 32 34 35 37 38 39 40 41 42 42 43 44 45 46 46
15 15 15 15 16 16 16 16 15 15 15 14 14 14 15 16 16 17 17 18 19 20 21 22 22 22 23 22 22 25 31 36 34 30 27 27 29 31 31 30 30 31 33 35 37 38 39 40 40 41 41 40 39 37 35 31 28 25 23 22 21 22 23 24 25 26 27 29 30 32 34 35 36 37 38 39 40 41 42 43 43 44 45 45 45
13 14 14 15 15 15 16 15 15 15 14 14 14 15 15 16 17 18 18 19 20 21 22 22 23 22 21 17 14 14 17 20 20 17 17 20 23 26 28 29 31 33 35 38 39 41 41 41 40 39 37 34 30 26 23 21 19 18 18 19 21 22 23 25 26 27 29 31 32 34 35 36 37 38 39 40 40 41 42 42 43 43 44 44 44
Wind_Direction
263 262 260 259 258 259 261 263 268 270 265 262 254 244 245 248 248 248 251 253 254 252 252 253 251 251 253 253 252 253 254 257 260 261 261 261 261 262 263 262 261 261 261 262 263 264 265 265 265 266 267 268 268 269 272 277 281 283 287 291 292 292 291 291 293 292 292 294 296 294 292 292 292 292 294 294 295 297 299 301 302 304 307 309 309
261 261 260 259 258 259 262 265 266 260 255 256 255 247 243 245 245 244 247 251 253 252 251 252 254 254 254 253 253 254 253 255 259 262 264 264 264 265 265 264 263 261 260 260 260 261 263 265 267 269 270 269 269 270 274 278 281 283 287 290 290 289 289 289 292 292 293 295 294 291 291 292 292 293 294 294 294 295 297 299 301 302 305 306 307
259 260 259 259 258 259 261 261 259 256 256 256 254 248 244 242 243 243 246 249 251 251 251 252 255 257 256 254 254 255 253 252 254 257 260 264 265 266 267 267 266 262 259 258 258 258 259 262 265 269 270 270 269 271 274 277 279 282 286 288 288 288 287 288 292 292 292 293 290 288 290 291 291 292 293 292 293 295 296 297 299 300 302 305 306
258 257 258 257 258 258 258 257 256 257 257 257 255 251 246 243 243 243 245 248 250 252 253 254 256 259 258 255 255 255 254 253 251 252 255 259 263 265 267 268 267 265 262 260 259 259 260 261 264 267 268 268 270 272 274 276 279 281 284 286 286 285 286 289 293 294 292 290 286 286 288 289 289 289 290 291 292 293 294 295 296 298 300 303 305
260 256 255 255 256 256 255 254 253 255 257 256 255 254 250 246 244 242 243 245 247 250 253 255 256 258 259 257 253 252 253 254 252 251 252 255 260 264 267 268 267 265 264 264 263 263 261 261 262 263 265 267 270 273 273 276 280 281 282 284 284 283 285 288 290 289 287 285 283 283 283 283 284 285 286 288 289 290 291 292 293 295 298 301 303
261 256 253 253 253 253 253 251 249 251 253 253 253 254 252 249 247 245 245 245 245 247 250 252 253 254 257 257 254 251 252 253 253 253 252 253 257 261 266 268 268 269 271 271 271 269 263 259 259 261 265 268 271 273 275 278 281 280 280 282 282 282 284 285 285 284 282 280 278 278 278 278 280 283 284 286 288 287 288 289 292 295 297 299 300
261 256 252 251 250 251 250 247 244 245 248 250 251 252 252 250 249 248 248 248 249 250 250 251 252 252 253 254 254 253 253 253 253 255 255 255 256 259 264 268 269 270 270 268 266 265 262 259 259 261 265 267 268 271 275 278 280 278 277 279 281 282 282 281 281 281 278 276 275 275 275 276 278 280 283 285 286 286 287 288 291 294 295 296 297
259 256 251 249 248 248 248 245 242 243 245 247 249 250 250 249 249 248 249 249 251 253 253 252 252 251 250 252 254 255 255 254 254 256 258 258 257 258 260 262 264 265 265 262 260 260 261 260 259 259 261 263 265 269 274 278 278 275 274 277 279 279 280 279 280 280 277 274 273 273 274 275 277 278 281 283 285 287 289 290 292 293 294 294 296
257 254 250 247 246 246 246 245 243 242 242 243 246 247 246 246 247 247 247 248 248 250 252 252 252 251 251 252 255 256 257 257 256 257 258 259 257 256 256 258 260 261 262 261 259 261 264 262 258 259 261 261 264 268 273 276 277 275 275 276 276 276 277 277 279 279 276 273 272 272 273 274 276 278 281 283 285 287 289 291 293 294 294 295 295
254 252 248 244 243 243 243 244 243 242 241 242 243 244 245 245 246 245 245 245 245 246 250 253 253 253 254 255 256 256 258 259 259 259 259 258 256 256 256 257 257 256 256 257 258 262 264 261 257 261 264 265 266 269 273 276 276 275 273 273 273 273 274 276 278 277 274 272 271 272 272 274 277 279 281 283 285 288 289 291 293 294 294 295 296
253 250 246 241 241 241 241 241 242 242 242 242 243 244 244 245 246 245 243 243 243 244 248 252 253 252 253 256 256 256 257 258 259 259 258 256 257 259 260 260 258 256 257 259 260 261 262 261 261 262 264 264 264 266 269 273 273 271 270 271 272 271 271 273 275 274 273 272 272 272 273 274 276 278 280 282 285 288 290 291 293 294 295 296 299
251 248 244 239 238 239 239 238 239 241 242 242 241 242 243 245 246 245 244 242 242 243 245 249 252 251 250 251 253 255 257 257 257 256 254 254 257 259 261 261 259 258 260 259 258 257 258 261 264 265 264 264 264 264 267 271 272 270 270 271 270 268 269 271 272 272 271 271 271 272 273 274 276 278 280 283 286 288 290 292 293 294 295 297 300
249 247 243 238 236 237 238 237 238 239 240 241 240 240 242 243 244 244 242 241 241 243 245 249 251 250 248 248 251 253 256 257 256 255 253 255 258 259 258 258 258 258 260 260 257 256 256 258 261 263 265 266 265 267 271 274 275 273 271 270 267 266 269 271 270 269 269 269 270 271 272 274 277 280 282 285 287 289 291 292 293 294 296 298 300
248 245 242 238 235 236 237 237 237 238 239 239 239 239 240 241 240 241 240 239 240 243 247 249 250 249 248 248 249 250 251 253 254 254 254 256 258 257 255 255 257 258 260 260 257 257 258 259 260 261 263 264 264 266 270 274 273 272 270 268 265 265 268 271 269 268 267 268 269 270 272 275 277 280 283 286 288 290 291 292 293 294 296 298 300
248 244 240 237 234 235 236 236 236 236 237 238 238 238 240 241 239 238 238 238 238 242 245 247 247 247 247 247 249 250 250 250 252 253 254 256 257 255 252 253 255 257 257 256 254 256 259 261 261 261 260 261 262 264 269 270 268 266 266 265 264 266 269 269 268 267 267 268 268 270 272 276 279 281 284 286 288 290 291 292 294 295 296 297 298
248 244 239 235 233 233 235 235 235 235 235 236 237 238 240 242 241 239 237 236 236 240 244 246 246 246 246 246 249 251 251 250 250 251 252 254 256 254 251 250 252 254 254 253 254 257 260 261 260 260 260 260 260 264 268 266 262 262 264 263 263 266 268 267 266 266 266 267 269 271 274 277 280 283 285 288 290 291 292 293 295 296 296 297 298
246 242 237 234 232 232 233 234 234 234 234 234 236 236 237 240 242 242 240 237 237 240 243 245 245 244 245 246 249 252 251 249 249 250 251 252 254 254 251 248 250 252 252 253 255 258 259 260 259 260 260 259 260 265 266 261 259 262 262 260 261 264 265 266 265 265 266 267 270 273 275 278 281 283 286 289 291 292 293 295 296 297 298 299 301
243 239 235 232 231 231 232 233 233 234 233 232 233 234 235 237 240 242 242 240 240 242 243 245 245 244 245 247 250 251 250 249 249 249 249 251 253 252 250 248 249 251 251 253 256 257 257 258 258 260 259 258 261 265 262 257 258 259 257 257 259 261 262 263 264 265 267 269 271 274 276 279 281 284 287 289 291 293 294 296 298 299 300 301 301
241 236 232 231 230 230 231 232 232 232 232 232 232 233 235 237 239 241 241 240 242 243 245 246 246 245 246 247 249 249 248 248 248 248 249 252 252 251 250 250 250 251 252 255 258 257 256 257 260 260 259 258 261 261 256 254 256 255 252 255 257 259 260 262 263 266 268 270 273 275 277 280 283 286 288 290 292 294 295 297 298 299 300 300 300
240 235 233 231 229 229 231 232 232 231 232 232 232 234 235 237 239 240 241 242 244 246 248 250 249 246 244 245 246 247 246 244 246 248 249 249 248 248 249 250 251 252 251 252 255 257 257 259 262 263 260 258 257 254 251 252 252 249 250 254 257 258 260 262 264 267 269 272 274 277 279 282 285 288 290 292 293 294 295 296 298 299 299 299 299
239 233 231 229 227 227 229 231 232 231 231 232 233 234 236 237 238 240 242 244 246 247 249 251 250 247 245 245 244 243 240 241 246 250 248 243 241 243 246 248 249 249 245 245 250 254 257 259 262 263 260 255 251 248 249 250 247 245 250 254 256 259 261 263 266 268 271 274 277 279 281 284 286 288 290 292 293 294 295 296 298 298 298 298 298
238 233 230 228 228 229 229 229 231 231 231 232 234 235 237 238 239 240 242 244 245 245 246 246 245 245 245 245 243 240 239 243 247 247 243 241 241 243 245 244 242 241 241 242 245 249 252 256 258 258 254 250 248 249 249 245 243 245 249 252 256 260 263 266 269 271 274 276 278 280 282 284 286 288 290 292 293 294 296 297 298 298 298 297 297
237 235 231 229 233 235 232 230 230 232 232 233 235 237 238 239 240 241 242 244 243 241 240 239 238 239 242 243 242 240 240 243 245 242 240 242 244 244 245 243 240 240 241 240 240 243 247 251 252 251 249 249 250 250 247 243 244 247 251 255 259 262 265 268 271 273 275 276 278 280 282 284 286 289 290 292 293 295 297 297 297 297 296 296 295
240 237 233 232 236 239 235 232 230 231 232 233 234 235 236 237 238 239 240 240 238 234 231 231 232 234 238 241 241 241 241 243 244 244 244 246 247 245 244 243 241 239 237 234 235 240 244 245 246 248 249 250 250 248 246 247 250 252 255 259 262 264 266 270 271 273 275 277 279 281 283 285 288 290 291 292 294 295 296 297 296 296 295 294 294
242 238 234 235 240 240 234 230 229 229 228 228 228 230 233 236 236 234 233 233 231 229 227 227 229 232 235 237 237 238 240 240 241 243 246 248 248 246 244 241 235 230 228 229 234 240 243 244 247 249 248 247 246 247 249 251 253 255 258 261 263 265 268 271 272 275 277 278 280 282 284 287 289 290 291 293 294 296 296 297 296 296 295 295 295
243 239 237 239 241 238 232 228 227 228 226 223 224 227 231 232 230 228 227 226 226 226 226 227 229 230 230 229 226 228 234 236 236 239 243 246 249 247 241 236 232 229 229 232 237 243 245 247 248 247 246 246 248 249 250 251 254 256 258 261 264 267 269 272 274 276 278 279 282 284 286 288 290 291 293 294 296 297 297 297 296 296 296 296 297
243 240 241 240 236 231 227 225 225 225 223 221 224 227 229 229 227 225 223 221 221 222 223 225 225 223 221 218 216 222 230 231 233 239 243 245 248 247 238 233 234 236 237 238 240 242 244 245 247 247 248 250 249 249 250 252 254 256 259 262 266 268 271 273 275 278 280 282 285 286 287 289 291 294 295 296 297 297 297 296 296 296 296 297 297
246 242 239 236 232 227 222 220 221 222 222 223 226 228 228 226 224 222 220 218 217 217 217 217 217 216 216 215 215 221 226 227 233 241 238 233 236 241 240 238 238 237 237 236 237 239 242 245 248 250 250 250 249 249 250 251 254 258 261 265 268 271 274 276 279 281 284 285 286 288 290 293 295 296 296 296 296 296 295 295 296 297 298 298 298
250 242 230 227 228 224 219 218 221 224 225 226 227 227 226 223 221 219 218 216 213 211 212 212 213 214 215 215 215 218 221 224 224 220 219 221 227 234 237 240 237 233 231 233 237 243 246 247 248 248 248 249 249 249 251 254 258 262 266 269 272 275 278 280 283 285 286 287 289 291 293 295 295 295 295 295 294 294 295 296 297 298 298 298 298
243 238 226 224 226 223 221 222 224 227 230 230 227 224 221 219 218 219 220 219 214 211 212 213 215 217 219 220 218 216 217 219 215 214 221 233 245 240 237 238 234 229 231 236 241 245 245 244 244 245 247 249 250 252 256 260 264 267 270 273 276 279 282 284 286 287 288 290 292 294 294 295 294 294 293 293 293 295 296 297 298 298 298 299 300
235 233 224 222 223 223 223 224 225 229 237 237 230 222 216 213 215 218 221 220 217 214 216 218 219 223 224 223 221 218 215 217 220 223 231 242 249 243 240 239 235 235 240 242 242 242 241 240 243 245 248 251 254 258 262 265 268 271 274 277 280 282 284 286 288 289 291 293 293 294 294 294 293 293 293 294 296 297 298 298 299 299 300 301 303
230 230 222 216 220 225 226 225 223 228 238 236 225 217 211 209 213 217 220 219 216 216 219 221 222 224 224 222 222 222 220 220 223 226 230 236 240 240 239 240 243 249 250 247 245 245 244 245 248 250 253 257 260 263 267 269 272 275 278 280 283 285 287 289 290 291 292 292 293 292 292 292 293 293 295 296 298 299 299 300 301 301 302 304 305
231 230 224 213 214 221 224 223 222 227 235 231 218 212 209 206 209 214 218 218 218 218 219 219 217 218 220 221 222 223 221 219 221 224 226 228 228 228 235 245 251 253 251 249 250 250 250 252 254 255 259 262 264 268 271 274 277 279 281 284 286 288 289 290 291 292 292 291 291 291 291 292 294 295 296 298 298 299 300 300 301 303 304 306 307
232 226 221 213 209 212 211 210 216 227 235 237 225 215 211 209 211 217 220 221 222 223 223 220 217 217 220 223 221 217 214 215 217 219 219 217 218 227 243 253 254 251 251 252 252 253 255 256 257 258 261 265 269 273 276 277 279 281 283 286 287 289 290 291 291 291 290 289 289 291 292 293 295 296 297 298 298 299 300 301 302 304 306 306 307
227 218 216 214 213 211 205 198 205 220 231 240 240 228 219 217 219 223 225 226 227 228 228 225 221 220 221 220 217 213 213 215 215 213 210 212 223 236 246 249 248 249 251 252 253 256 257 257 259 261 265 269 273 276 277 278 281 283 285 286 287 289 290 290 289 288 288 288 290 292 293 295 296 297 297 297 298 299 301 302 304 305 305 306 307
224 213 208 208 209 210 206 199 199 209 222 236 247 244 232 224 225 228 228 226 225 224 222 220 217 216 216 216 214 212 211 211 209 209 211 220 233 241 245 247 248 251 253 254 256 258 258 259 261 264 267 272 275 277 278 280 282 284 286 287 288 289 289 288 288 288 289 290 292 293 294 295 295 295 296 297 298 300 302 303 304 305 305 306 308
220 208 201 200 201 203 203 201 202 211 225 236 244 248 242 234 239 246 234 221 216 215 213 212 210 209 209 208 207 207 209 211 214 219 227 234 239 242 244 247 249 251 252 254 255 256 257 259 262 265 269 273 275 276 278 280 281 283 286 288 290 290 290 289 289 289 290 291 292 293 294 293 293 294 296 298 300 302 303 303 304 305 307 309 310
213 198 192 195 197 199 201 201 202 215 237 246 244 248 247 243 251 261 244 217 209 211 214 215 214 210 206 203 204 210 220 227 230 233 237 238 239 241 244 247 249 250 251 252 253 254 256 259 262 266 270 272 273 275 276 278 280 282 285 288 289 290 290 290 290 290 290 291 291 291 291 291 292 294 297 299 301 302 302 303 305 307 309 312 313
207 192 188 193 198 198 199 201 204 213 231 247 251 255 260 261 264 268 256 233 221 220 224 225 224 222 221 219 218 222 228 232 234 235 237 238 242 246 249 250 250 251 251 251 253 255 258 261 264 268 270 271 272 273 274 277 280 283 285 286 287 287 288 289 289 290 290 289 288 288 289 291 293 296 298 300 301 301 303 305 308 310 312 314 315
203 190 188 195 200 200 198 201 208 215 228 248 257 258 260 260 261 266 260 246 237 236 237 233 231 232 235 236 236 235 234 236 236 236 238 243 249 252 252 252 253 253 254 255 257 259 262 264 267 269 270 271 271 272 274 278 281 283 284 285 285 285 286 288 289 289 288 286 286 287 289 292 295 298 300 301 301 303 306 308 311 313 315 316 316
204 195 193 198 203 205 203 203 208 215 226 244 255 255 254 252 250 255 257 251 246 246 244 242 241 239 237 239 242 241 239 238 237 235 238 245 252 255 254 253 253 254 257 259 261 262 263 265 266 268 269 271 272 274 276 279 281 283 283 283 282 283 284 287 288 287 285 285 285 287 290 294 296 298 299 301 303 306 309 311 313 315 316 316 315
208 200 199 202 205 210 212 211 213 220 228 239 249 253 255 255 255 259 264 264 260 254 249 248 247 244 242 244 245 241 237 236 233 232 236 247 255 257 254 250 251 256 260 261 261 262 264 265 266 269 270 271 273 274 276 279 281 281 280 280 281 283 284 285 285 284 283 284 285 288 292 294 295 297 299 302 306 309 311 313 315 316 315 315 314
213 205 204 207 210 216 221 222 224 230 237 241 247 253 258 260 262 265 268 267 263 260 257 256 252 248 248 250 246 240 239 238 233 230 237 251 260 258 251 248 252 259 263 263 264 265 265 264 265 266 268 271 273 275 276 277 279 280 280 281 282 283 283 282 281 281 281 282 285 288 291 293 294 297 301 304 307 309 311 313 314 314 314 314 314
216 212 210 212 215 221 226 229 232 239 245 247 249 254 261 266 268 270 271 269 267 265 264 263 260 255 252 252 250 248 246 243 237 236 245 257 262 259 253 253 260 265 266 266 267 267 266 265 264 265 266 270 273 275 275 275 277 279 281 281 281 280 280 279 277 277 278 281 284 287 290 292 295 299 302 305 308 310 312 313 313 313 314 313 313
221 220 218 218 221 224 228 232 236 242 249 252 252 254 260 267 270 272 274 274 272 269 265 264 265 262 258 256 253 249 245 243 242 246 252 258 259 258 256 259 265 269 270 270 271 270 269 268 267 267 268 269 270 272 273 274 276 278 278 278 278 277 275 273 273 275 278 283 285 287 290 293 298 301 304 307 310 311 312 313 312 312 312 313 314
228 229 228 227 227 229 231 235 238 243 250 255 255 256 261 267 272 275 276 274 271 268 266 266 265 263 262 259 253 245 241 241 245 248 252 255 257 258 258 259 263 268 272 275 275 274 272 270 269 270 270 271 272 273 274 275 277 277 277 276 273 271 270 272 276 281 284 287 288 290 294 298 302 305 308 310 311 312 312 311 311 311 312 313 315
236 239 239 237 236 235 235 238 240 244 250 254 256 258 262 268 271 274 274 273 270 267 265 264 264 264 263 260 255 249 246 247 249 251 253 255 257 258 258 258 263 270 278 282 283 280 278 275 274 274 274 274 275 275 275 276 276 275 274 272 271 272 276 281 285 288 289 290 292 296 300 303 306 309 310 311 311 311 310 310 310 311 313 315 316
241 247 249 248 246 242 239 238 240 244 249 253 258 262 268 273 275 275 274 274 271 266 262 263 266 267 265 261 257 253 251 249 250 253 256 258 260 260 259 260 266 277 285 289 289 287 285 282 281 281 282 283 283 282 281 279 277 276 274 275 278 283 287 289 290 291 292 294 298 302 305 308 309 310 309 309 310 310 310 310 311 313 314 315 316
245 250 251 251 250 248 245 242 242 245 251 257 264 271 276 279 279 279 278 276 273 270 268 269 272 275 277 277 276 273 268 261 256 256 261 265 266 264 262 263 270 278 284 286 287 287 286 284 283 285 287 288 288 286 285 283 282 281 282 285 288 290 291 291 292 294 296 299 303 306 308 309 309 308 308 309 310 310 311 312 313 314 315 315 315
250 252 252 252 252 253 253 252 253 255 261 267 273 277 280 281 280 279 279 279 277 277 279 281 282 287 293 298 299 294 284 273 265 265 271 275 271 265 263 265 270 276 280 282 283 282 281 280 280 281 282 284 284 284 284 284 285 287 289 290 291 292 292 293 295 298 301 304 307 307 307 307 307 307 309 310 311 311 312 313 314 314 315 315 316
253 255 257 257 257 259 261 262 264 267 270 274 277 279 280 281 281 281 282 282 282 283 285 286 288 290 292 294 298 298 291 282 276 278 284 283 276 270 269 270 274 277 280 281 281 280 279 278 278 279 280 282 283 284 286 288 290 292 293 293 293 293 294 297 300 303 305 306 306 305 305 306 307 308 310 310 311 312 313 314 314 315 315 315 316
Height
5858 5859 5859 5860 5861 5860 5860 5864 5871 5874 5872 5871 5871 5872 5873 5875 5877 5879 5879 5880 5881 5883 5884 5885 5886 5887 5888 5889 5889 5889 5890 5891 5892 5893 5894 5895 5895 5895 5895 5895 5895 5895 5896 5896 5896 5896 5896 5896 5896 5896 5896 5897 5897 5896 5896 5895 5895 5894 5894 5893 5893 5892 5892 5890 5890 5889 5887 5886 5885 5884 5883 5882 5882 5881 5880 5879 5878 5876 5875 5873 5872 5870 5870 5869 5868
5853 5853 5854 5855 5856 5856 5858 5864 5868 5868 5866 5866 5867 5869 5870 5871 5872 5874 5875 5876 5877 5879 5881 5882 5884 5885 5885 5885 5886 5886 5887 5888 5889 5891 5892 5892 5893 5893 5893 5893 5893 5893 5892 5892 5892 5892 5893 5893 5893 5893 5894 5894 5894 5893 5893 5893 5892 5892 5891 5891 5890 5889 5889 5888 5887 5887 5885 5884 5883 5882 5880 5880 5880 5879 5878 5877 5876 5874 5873 5871 5870 5869 5868 5867 5866
5848 5848 5849 5850 5851 5852 5856 5860 5862 5862 5861 5862 5863 5864 5866 5867 5868 5869 5871 5873 5874 5876 5877 5879 5881 5882 5882 5882 5883 5884 5884 5885 5886 5887 5888 5889 5890 5890 5891 5891 5890 5890 5889 5889 5888 5889 5889 5890 5890 5891 5891 5891 5890 5891 5890 5890 5889 5889 5889 5888 5887 5886 5886 5885 5885 5884 5883 5882 5881 5880 5879 5878 5878 5876 5876 5875 5874 5873 5871 5870 5868 5867 5866 5865 5864
5843 5843 5844 5845 5846 5848 5851 5854 5857 5858 5858 5858 5859 5860 5862 5864 5865 5866 5867 5869 5870 5871 5873 5874 5876 5878 5879 5880 5881 5881 5881 5881 5882 5883 5884 5885 5886 5887 5888 5888 5887 5886 5886 5885 5885 5886 5887 5887 5887 5887 5887 5887 5887 5888 5888 5887 5887 5887 5886 5885 5885 5884 5883 5882 5882 5881 5880 5879 5878 5878 5877 5876 5875 5874 5873 5873 5872 5871 5870 5868 5867 5866 5865 5864 5862
5838 5838 5839 5840 5842 5844 5846 5849 5852 5853 5853 5854 5855 5856 5858 5860 5861 5862 5863 5864 5865 5866 5867 5869 5871 5874 5875 5876 5877 5878 5878 5878 5879 5880 5880 5881 5882 5884 5885 5885 5884 5883 5882 5882 5883 5883 5884 5884 5885 5884 5883 5884 5885 5885 5884 5884 5884 5884 5883 5882 5882 5881 5880 5880 5879 5878 5877 5876 5875 5875 5875 5874 5873 5872 5871 5871 5870 5869 5868 5867 5866 5865 5863 5862 5860
5832 5833 5833 5835 5837 5839 5841 5844 5847 5847 5847 5848 5850 5852 5854 5856 5857 5858 5859 5860 5861 5862 5863 5864 5866 5869 5870 5871 5873 5874 5874 5875 5876 5876 5877 5877 5878 5880 5881 5881 5881 5880 5881 5881 5882 5882 5882 5882 5882 5881 5881 5882 5882 5881 5881 5881 5881 5880 5879 5879 5879 5879 5878 5877 5876 5875 5874 5874 5873 5872 5872 5871 5871 5869 5869 5868 5868 5867 5866 5865 5864 5862 5861 5860 5858
5825 5826 5828 5829 5831 5833 5836 5838 5840 5841 5841 5842 5845 5848 5850 5852 5853 5854 5856 5857 5858 5859 5860 5860 5861 5863 5865 5867 5869 5870 5870 5871 5872 5873 5873 5874 5875 5877 5877 5877 5877 5877 5878 5878 5878 5878 5878 5879 5879 5878 5878 5878 5878 5877 5877 5877 5877 5877 5876 5875 5876 5876 5875 5874 5873 5872 5871 5871 5870 5870 5869 5868 5868 5867 5866 5865 5865 5864 5864 5863 5861 5860 5858 5857 5855
5819 5820 5822 5824 5825 5827 5830 5831 5832 5834 5835 5837 5841 5844 5846 5848 5849 5850 5852 5853 5855 5856 5856 5856 5857 5858 5860 5862 5864 5866 5867 5867 5869 5870 5870 5871 5872 5872 5872 5871 5871 5872 5872 5872 5873 5874 5875 5875 5875 5874 5874 5874 5874 5874 5874 5873 5873 5873 5872 5872 5872 5872 5872 5871 5870 5869 5869 5868 5867 5867 5866 5865 5864 5864 5863 5862 5862 5861 5860 5859 5858 5857 5855 5854 5853
5812 5814 5816 5818 5819 5821 5823 5825 5826 5828 5830 5832 5835 5838 5840 5842 5844 5846 5848 5849 5850 5851 5852 5852 5853 5854 5856 5858 5860 5862 5863 5864 5866 5866 5866 5867 5868 5867 5867 5867 5867 5868 5868 5868 5869 5870 5870 5871 5871 5871 5871 5871 5870 5870 5871 5870 5870 5869 5868 5868 5868 5868 5868 5867 5867 5866 5866 5865 5864 5864 5863 5862 5861 5861 5860 5859 5859 5858 5857 5856 5855 5854 5852 5850 5849
5806 5807 5810 5812 5814 5815 5817 5818 5820 5823 5825 5827 5830 5832 5835 5837 5839 5841 5843 5844 5845 5847 5848 5849 5850 5851 5853 5854 5856 5858 5859 5861 5863 5863 5862 5862 5863 5863 5863 5863 5863 5863 5862 5864 5865 5866 5866 5868 5868 5868 5868 5867 5867 5867 5867 5867 5867 5867 5866 5865 5865 5865 5864 5864 5863 5863 5863 5862 5861 5860 5860 5859 5858 5857 5857 5856 5855 5855 5854 5853 5852 5850 5849 5847 5845
5800 5802 5804 5806 5808 5809 5810 5812 5814 5817 5820 5823 5826 5828 5830 5832 5834 5836 5838 5840 5841 5842 5844 5846 5847 5848 5849 5850 5851 5853 5855 5856 5858 5858 5858 5858 5859 5860 5860 5859 5859 5858 5859 5860 5862 5862 5863 5864 5865 5865 5865 5864 5864 5865 5865 5865 5864 5864 5863 5862 5861 5861 5860 5860 5860 5860 5859 5859 5858 5857 5856 5856 5855 5854 5854 5853 5852 5851 5850 5849 5848 5847 5845 5843 5842
5795 5796 5798 5800 5802 5803 5804 5806 5808 5811 5815 5818 5822 5824 5825 5827 5829 5831 5833 5835 5836 5838 5840 5842 5843 5843 5844 5845 5847 5848 5849 5851 5853 5853 5853 5854 5855 5856 5856 5856 5855 5854 5855 5856 5857 5857 5858 5859 5860 5860 5860 5861 5861 5861 5861 5861 5861 5860 5859 5858 5858 5857 5857 5857 5857 5856 5856 5856 5855 5854 5853 5852 5852 5851 5850 5850 5849 5848 5847 5846 5845 5843 5842 5841 5839
5790 5791 5793 5795 5797 5798 5799 5801 5803 5806 5810 5813 5816 5819 5820 5822 5824 5826 5828 5830 5831 5833 5835 5836 5837 5838 5839 5841 5842 5843 5844 5846 5848 5849 5849 5849 5850 5851 5851 5851 5850 5851 5851 5851 5852 5853 5854 5855 5855 5855 5855 5856 5856 5856 5856 5856 5856 5856 5855 5855 5854 5854 5853 5853 5853 5853 5852 5852 5852 5851 5850 5849 5849 5848 5847 5846 5846 5845 5844 5843 5842 5840 5838 5837 5836
5785 5786 5787 5789 5791 5793 5795 5796 5799 5801 5805 5808 5811 5813 5815 5816 5817 5820 5823 5825 5827 5828 5830 5831 5832 5833 5835 5836 5837 5837 5838 5841 5843 5844 5844 5845 5845 5845 5845 5845 5846 5847 5847 5847 5848 5850 5850 5851 5851 5851 5851 5852 5852 5852 5852 5852 5852 5851 5851 5851 5850 5850 5850 5849 5849 5849 5849 5849 5849 5848 5847 5846 5846 5845 5844 5843 5842 5841 5840 5839 5838 5837 5835 5834 5833
5780 5781 5782 5784 5787 5788 5790 5792 5794 5797 5800 5803 5805 5808 5810 5811 5813 5815 5817 5819 5821 5823 5825 5826 5827 5828 5830 5831 5832 5832 5833 5836 5838 5839 5839 5840 5840 5840 5840 5840 5841 5842 5842 5843 5844 5845 5846 5847 5847 5847 5847 5848 5848 5848 5848 5848 5848 5847 5847 5847 5847 5847 5847 5846 5846 5846 5846 5846 5845 5845 5845 5844 5843 5842 5841 5840 5839 5838 5837 5836 5835 5833 5831 5830 5829
5775 5776 5778 5780 5782 5783 5785 5787 5789 5792 5795 5798 5801 5803 5806 5808 5810 5811 5812 5813 5816 5818 5819 5820 5822 5823 5824 5826 5827 5827 5829 5831 5832 5833 5834 5835 5834 5834 5835 5835 5836 5837 5838 5838 5840 5841 5842 5842 5842 5843 5843 5843 5843 5844 5844 5843 5843 5843 5844 5844 5843 5843 5843 5843 5843 5843 5843 5843 5842 5842 5842 5841 5840 5839 5838 5836 5835 5834 5833 5832 5830 5829 5827 5826 5825
5771 5772 5773 5775 5777 5779 5780 5783 5785 5787 5790 5793 5796 5798 5800 5803 5805 5806 5808 5809 5812 5813 5814 5815 5817 5818 5819 5820 5822 5822 5824 5826 5826 5827 5829 5829 5829 5829 5830 5830 5831 5833 5833 5834 5835 5836 5837 5837 5838 5838 5838 5839 5839 5839 5839 5839 5839 5840 5840 5840 5840 5840 5839 5839 5839 5839 5840 5840 5839 5839 5839 5838 5837 5836 5834 5833 5831 5830 5829 5827 5826 5824 5823 5821 5820
5767 5768 5769 5771 5773 5774 5776 5778 5780 5782 5785 5788 5790 5792 5795 5797 5800 5802 5805 5806 5808 5809 5809 5811 5812 5813 5814 5816 5816 5817 5819 5820 5821 5822 5823 5823 5823 5824 5825 5826 5827 5828 5829 5830 5831 5831 5832 5832 5833 5834 5834 5834 5835 5835 5835 5835 5835 5836 5836 5836 5836 5836 5836 5836 5836 5836 5836 5836 5836 5835 5835 5834 5833 5832 5831 5829 5828 5826 5824 5823 5821 5819 5818 5816 5814
5762 5763 5765 5767 5769 5771 5773 5774 5776 5778 5780 5782 5785 5787 5790 5792 5795 5798 5801 5803 5804 5805 5806 5807 5809 5809 5810 5811 5811 5812 5814 5815 5815 5817 5818 5818 5818 5819 5821 5822 5823 5823 5825 5825 5826 5826 5827 5828 5828 5829 5829 5830 5830 5830 5831 5831 5831 5832 5832 5832 5833 5833 5832 5832 5832 5833 5833 5832 5832 5832 5831 5830 5829 5828 5827 5825 5824 5822 5820 5818 5817 5815 5814 5812 5810
5760 5761 5763 5764 5766 5767 5769 5771 5773 5774 5776 5778 5780 5783 5785 5788 5791 5794 5796 5798 5800 5801 5802 5804 5804 5805 5806 5806 5807 5808 5809 5810 5811 5811 5813 5813 5814 5816 5817 5818 5818 5819 5822 5822 5821 5821 5822 5822 5823 5823 5824 5825 5826 5826 5826 5826 5827 5828 5828 5829 5829 5829 5829 5829 5829 5829 5829 5829 5828 5828 5827 5826 5825 5824 5822 5821 5819 5818 5816 5814 5813 5811 5809 5807 5805
5759 5760 5761 5762 5764 5765 5766 5767 5769 5770 5772 5774 5776 5779 5781 5784 5787 5790 5792 5793 5795 5796 5798 5799 5800 5802 5802 5802 5803 5803 5805 5807 5807 5807 5807 5809 5811 5812 5812 5812 5813 5814 5816 5817 5816 5816 5816 5817 5818 5819 5820 5820 5821 5822 5822 5822 5823 5824 5824 5825 5826 5826 5826 5826 5826 5826 5825 5825 5825 5824 5823 5822 5821 5820 5818 5817 5815 5814 5812 5810 5808 5806 5805 5803 5801
5756 5757 5757 5759 5761 5762 5762 5763 5765 5766 5768 5770 5773 5775 5778 5780 5783 5785 5787 5788 5789 5791 5792 5794 5797 5798 5798 5799 5799 5800 5802 5804 5803 5803 5803 5804 5806 5807 5806 5807 5808 5809 5810 5811 5811 5811 5812 5813 5814 5815 5816 5817 5817 5817 5817 5818 5819 5820 5821 5822 5822 5822 5823 5823 5822 5822 5822 5821 5821 5820 5819 5818 5817 5816 5814 5813 5812 5810 5808 5805 5804 5802 5800 5798 5797
5753 5754 5754 5756 5757 5759 5759 5759 5761 5763 5764 5767 5769 5771 5774 5777 5779 5781 5782 5783 5784 5785 5787 5790 5792 5794 5794 5795 5795 5797 5799 5800 5799 5799 5798 5799 5801 5802 5802 5802 5804 5805 5805 5805 5805 5806 5808 5809 5810 5811 5812 5813 5813 5813 5814 5815 5816 5817 5817 5818 5819 5819 5819 5819 5819 5818 5818 5817 5817 5816 5815 5814 5813 5811 5810 5809 5807 5805 5803 5801 5799 5797 5796 5794 5792
5751 5751 5752 5753 5754 5755 5755 5756 5757 5759 5761 5763 5765 5768 5771 5773 5775 5776 5777 5779 5780 5781 5782 5785 5787 5789 5790 5791 5792 5794 5795 5795 5795 5795 5795 5796 5797 5798 5798 5799 5801 5801 5801 5801 5801 5803 5804 5806 5807 5808 5809 5809 5810 5810 5811 5812 5813 5813 5814 5815 5815 5816 5816 5815 5815 5815 5814 5813 5812 5811 5810 5809 5808 5807 5806 5804 5802 5800 5798 5796 5795 5793 5791 5789 5788
5748 5748 5749 5751 5752 5752 5752 5753 5754 5756 5758 5760 5763 5765 5767 5769 5770 5771 5772 5774 5775 5777 5778 5780 5782 5784 5786 5786 5788 5791 5791 5791 5791 5792 5792 5792 5792 5793 5794 5795 5796 5796 5796 5797 5798 5800 5801 5803 5804 5805 5805 5806 5806 5807 5808 5809 5810 5810 5811 5812 5812 5812 5812 5812 5811 5811 5810 5809 5808 5807 5806 5805 5803 5802 5801 5799 5797 5795 5793 5792 5790 5788 5786 5784 5783
5746 5746 5747 5748 5749 5749 5749 5750 5752 5754 5756 5758 5760 5762 5764 5765 5766 5767 5768 5769 5771 5773 5775 5776 5778 5780 5781 5782 5785 5787 5786 5786 5788 5789 5789 5788 5788 5789 5790 5791 5792 5793 5794 5795 5796 5797 5799 5800 5801 5801 5802 5803 5804 5805 5806 5806 5807 5808 5808 5809 5809 5809 5808 5808 5807 5806 5806 5805 5804 5802 5801 5800 5798 5797 5795 5793 5791 5790 5788 5786 5785 5783 5781 5779 5778
5743 5744 5745 5745 5745 5746 5747 5748 5750 5751 5753 5755 5757 5759 5760 5761 5762 5763 5764 5766 5768 5769 5771 5773 5775 5776 5777 5778 5780 5782 5782 5783 5785 5786 5785 5785 5784 5785 5787 5788 5789 5790 5791 5792 5793 5795 5796 5797 5798 5799 5800 5800 5801 5802 5803 5803 5804 5805 5805 5805 5805 5805 5804 5804 5803 5802 5801 5800 5799 5797 5796 5795 5793 5791 5789 5788 5786 5784 5783 5781 5780 5778 5776 5775 5773
5742 5742 5742 5742 5742 5743 5745 5746 5747 5748 5749 5751 5753 5755 5756 5757 5759 5760 5762 5763 5765 5766 5767 5769 5771 5773 5774 5776 5777 5778 5778 5780 5783 5784 5782 5780 5781 5782 5784 5785 5786 5787 5788 5789 5791 5792 5793 5794 5795 5796 5797 5798 5799 5800 5800 5801 5801 5802 5802 5802 5801 5801 5800 5800 5799 5798 5796 5795 5794 5792 5791 5789 5787 5786 5784 5783 5781 5780 5778 5776 5775 5773 5771 5769 5767
5741 5741 5740 5739 5739 5741 5743 5744 5745 5746 5747 5749 5750 5751 5752 5754 5756 5757 5759 5761 5762 5763 5765 5767 5769 5771 5773 5773 5773 5774 5775 5778 5781 5780 5776 5775 5776 5778 5780 5783 5784 5785 5786 5787 5788 5789 5790 5791 5793 5793 5794 5795 5796 5797 5797 5798 5798 5798 5798 5798 5797 5797 5796 5795 5794 5793 5791 5790 5789 5787 5785 5784 5782 5781 5780 5778 5777 5775 5773 5772 5770 5768 5766 5764 5762
5739 5739 5738 5737 5737 5739 5741 5742 5743 5744 5745 5746 5747 5748 5749 5751 5753 5754 5756 5757 5759 5761 5763 5764 5767 5768 5770 5770 5770 5771 5773 5776 5779 5777 5773 5771 5773 5775 5778 5780 5781 5782 5784 5785 5786 5787 5788 5789 5790 5791 5791 5792 5793 5793 5794 5795 5795 5795 5794 5793 5793 5792 5791 5790 5789 5788 5786 5785 5783 5782 5781 5779 5778 5777 5775 5774 5772 5770 5769 5767 5765 5763 5761 5759 5756
5737 5737 5736 5736 5736 5737 5739 5740 5741 5742 5743 5744 5744 5745 5746 5748 5750 5752 5753 5754 5757 5758 5760 5761 5763 5765 5766 5767 5768 5770 5771 5772 5774 5774 5772 5771 5772 5774 5776 5778 5779 5780 5781 5782 5783 5784 5785 5786 5787 5788 5788 5789 5790 5790 5791 5791 5791 5790 5790 5789 5789 5788 5787 5785 5784 5783 5781 5780 5779 5777 5776 5775 5774 5772 5770 5769 5767 5765 5764 5762 5760 5758 5755 5753 5750
5736 5736 5735 5735 5735 5737 5738 5739 5740 5741 5742 5742 5743 5743 5744 5746 5747 5749 5750 5752 5754 5756 5757 5759 5760 5762 5763 5764 5766 5767 5769 5769 5769 5770 5771 5772 5773 5774 5775 5776 5776 5777 5778 5779 5781 5782 5783 5784 5784 5785 5785 5786 5786 5787 5787 5787 5787 5786 5786 5785 5784 5783 5782 5781 5779 5778 5777 5775 5774 5773 5772 5771 5769 5767 5766 5764 5762 5760 5758 5756 5754 5752 5749 5747 5744
5734 5735 5735 5735 5735 5737 5738 5739 5740 5741 5742 5742 5742 5742 5743 5744 5745 5747 5748 5750 5751 5753 5755 5756 5758 5759 5760 5762 5763 5764 5766 5767 5767 5767 5769 5770 5771 5771 5772 5773 5774 5775 5776 5777 5778 5779 5780 5781 5782 5782 5782 5783 5783 5783 5783 5783 5783 5782 5781 5780 5779 5778 5777 5776 5775 5773 5772 5771 5770 5769 5768 5766 5765 5763 5761 5759 5757 5755 5753 5751 5749 5746 5744 5741 5738
5733 5734 5734 5734 5735 5736 5738 5739 5740 5740 5740 5740 5741 5741 5742 5742 5744 5745 5746 5748 5749 5751 5753 5755 5756 5757 5758 5759 5760 5762 5763 5764 5765 5766 5767 5768 5769 5769 5770 5771 5772 5773 5775 5775 5776 5777 5777 5778 5779 5779 5779 5780 5780 5780 5779 5779 5778 5777 5776 5775 5774 5773 5772 5771 5770 5769 5768 5767 5766 5765 5763 5761 5760 5758 5756 5754 5752 5750 5748 5746 5743 5741 5738 5736 5733
5732 5733 5733 5734 5735 5736 5737 5738 5739 5739 5739 5739 5740 5740 5741 5742 5743 5744 5745 5746 5748 5750 5751 5753 5754 5755 5756 5756 5758 5760 5761 5762 5763 5764 5765 5766 5767 5768 5769 5770 5771 5772 5773 5773 5774 5774 5775 5775 5776 5776 5776 5777 5776 5776 5775 5775 5774 5773 5772 5771 5770 5769 5768 5767 5766 5765 5764 5763 5761 5760 5758 5756 5755 5753 5751 5749 5747 5745 5743 5740 5738 5736 5733 5730 5728
5731 5732 5732 5733 5734 5735 5736 5737 5738 5738 5739 5739 5740 5740 5741 5741 5742 5743 5744 5745 5746 5748 5749 5750 5751 5753 5754 5755 5756 5758 5759 5761 5762 5763 5764 5764 5765 5767 5768 5769 5769 5770 5770 5771 5771 5772 5772 5773 5773 5773 5773 5773 5773 5772 5771 5770 5770 5769 5768 5767 5766 5765 5764 5763 5762 5761 5759 5758 5756 5755 5753 5751 5750 5748 5746 5744 5742 5740 5738 5735 5733 5730 5728 5725 5722
5730 5731 5731 5732 5733 5733 5734 5736 5737 5738 5738 5739 5740 5741 5741 5741 5742 5742 5743 5744 5745 5746 5748 5749 5750 5751 5753 5754 5755 5756 5758 5759 5761 5762 5762 5763 5764 5765 5766 5766 5767 5768 5768 5768 5768 5769 5769 5769 5769 5769 5769 5769 5768 5768 5767 5766 5766 5765 5764 5763 5762 5761 5760 5759 5757 5756 5754 5753 5751 5750 5748 5747 5745 5743 5741 5739 5737 5735 5732 5730 5728 5725 5722 5719 5716
5729 5730 5730 5731 5732 5733 5734 5735 5736 5737 5738 5739 5740 5740 5741 5741 5742 5742 5742 5743 5744 5745 5746 5748 5749 5751 5752 5754 5755 5756 5757 5758 5759 5760 5760 5761 5762 5762 5763 5764 5764 5764 5764 5765 5765 5765 5765 5765 5765 5765 5765 5764 5764 5763 5763 5762 5761 5761 5760 5759 5758 5756 5755 5754 5753 5751 5750 5748 5746 5745 5744 5742 5740 5738 5736 5734 5732 5730 5727 5725 5722 5720 5717 5714 5710
5727 5728 5729 5730 5731 5732 5733 5734 5735 5736 5737 5738 5739 5739 5740 5741 5741 5741 5742 5743 5744 5745 5746 5747 5749 5750 5752 5753 5754 5755 5755 5756 5757 5757 5758 5758 5759 5760 5760 5760 5761 5761 5761 5761 5761 5761 5761 5761 5761 5761 5761 5760 5760 5759 5759 5758 5757 5756 5755 5754 5753 5752 5751 5749 5748 5746 5745 5743 5742 5740 5739 5737 5735 5733 5731 5729 5727 5725 5722 5720 5717 5714 5711 5708 5705
5725 5727 5728 5729 5730 5731 5732 5733 5735 5736 5737 5737 5738 5739 5739 5740 5741 5741 5742 5742 5743 5745 5745 5746 5748 5749 5750 5750 5751 5752 5752 5753 5753 5754 5755 5755 5756 5756 5757 5757 5757 5757 5757 5757 5757 5757 5757 5757 5757 5757 5757 5756 5756 5755 5755 5754 5753 5752 5751 5750 5748 5747 5746 5744 5743 5741 5740 5738 5737 5735 5734 5732 5730 5728 5726 5724 5721 5719 5717 5714 5711 5708 5705 5702 5699
5723 5725 5727 5728 5729 5730 5731 5733 5734 5735 5736 5737 5737 5738 5738 5739 5740 5741 5740 5741 5742 5744 5744 5745 5746 5747 5747 5747 5748 5749 5749 5749 5748 5749 5751 5752 5753 5753 5753 5753 5753 5753 5753 5753 5753 5754 5753 5753 5753 5753 5752 5752 5752 5751 5750 5750 5749 5748 5746 5745 5743 5742 5740 5739 5737 5736 5734 5733 5731 5730 5728 5727 5725 5723 5721 5719 5717 5714 5712 5709 5706 5703 5700 5697 5694
5721 5723 5725 5726 5727 5729 5730 5731 5733 5734 5735 5736 5736 5736 5737 5738 5739 5739 5739 5739 5741 5742 5743 5743 5744 5745 5745 5745 5745 5746 5746 5746 5746 5747 5748 5749 5749 5749 5749 5750 5750 5750 5750 5750 5750 5750 5749 5749 5749 5749 5748 5748 5747 5747 5746 5745 5744 5743 5741 5740 5738 5736 5735 5734 5732 5731 5729 5728 5726 5725 5723 5722 5720 5718 5716 5714 5712 5709 5706 5704 5701 5698 5695 5692 5689
5719 5721 5723 5725 5726 5727 5729 5730 5731 5732 5733 5734 5735 5735 5736 5737 5737 5737 5737 5738 5739 5740 5741 5741 5742 5742 5742 5742 5743 5743 5744 5744 5744 5745 5745 5746 5745 5746 5746 5746 5747 5747 5747 5747 5746 5746 5746 5745 5745 5745 5744 5744 5743 5742 5741 5740 5739 5737 5736 5735 5733 5731 5730 5728 5727 5725 5724 5722 5721 5720 5718 5717 5715 5713 5711 5709 5706 5704 5701 5699 5696 5693 5690 5687 5684
5717 5719 5721 5723 5724 5726 5727 5729 5730 5731 5731 5732 5734 5734 5735 5735 5735 5735 5736 5736 5737 5738 5739 5739 5739 5740 5740 5739 5740 5741 5741 5741 5742 5742 5743 5742 5743 5743 5743 5743 5744 5744 5743 5743 5743 5742 5742 5741 5741 5741 5740 5739 5738 5737 5736 5735 5734 5732 5731 5729 5728 5726 5724 5723 5721 5719 5718 5717 5716 5715 5713 5712 5710 5708 5706 5703 5701 5698 5696 5693 5691 5688 5685 5682 5679
5715 5717 5719 5721 5722 5724 5725 5727 5728 5729 5729 5730 5732 5733 5733 5734 5734 5734 5734 5734 5735 5736 5737 5737 5737 5737 5737 5737 5737 5738 5738 5738 5738 5739 5739 5739 5739 5739 5739 5739 5739 5739 5739 5739 5739 5738 5738 5737 5736 5736 5735 5734 5733 5732 5731 5729 5728 5726 5725 5723 5721 5720 5718 5716 5715 5714 5713 5712 5711 5710 5709 5707 5705 5703 5700 5698 5696 5693 5691 5688 5686 5683 5681 5678 5674
5714 5715 5717 5718 5720 5722 5723 5725 5726 5727 5727 5728 5729 5730 5732 5732 5732 5732 5732 5733 5733 5734 5734 5734 5734 5734 5734 5734 5735 5735 5735 5735 5735 5735 5735 5734 5734 5734 5734 5735 5735 5736 5736 5735 5735 5734 5733 5732 5732 5731 5730 5729 5728 5726 5725 5723 5722 5720 5718 5717 5714 5713 5711 5711 5710 5710 5709 5708 5707 5706 5704 5702 5700 5698 5695 5693 5691 5688 5686 5683 5681 5678 5675 5672 5668
5712 5714 5715 5716 5718 5720 5721 5722 5724 5725 5725 5726 5727 5728 5729 5730 5730 5729 5730 5730 5731 5731 5731 5731 5730 5730 5730 5731 5731 5731 5731 5731 5731 5731 5730 5730 5730 5730 5730 5731 5732 5733 5732 5732 5731 5730 5729 5728 5727 5726 5725 5724 5723 5722 5720 5718 5716 5714 5712 5710 5708 5708 5708 5708 5707 5707 5706 5704 5703 5701 5699 5697 5695 5693 5690 5688 5686 5683 5681 5678 5676 5673 5669 5666 5662
5712 5713 5714 5715 5716 5717 5719 5720 5721 5722 5723 5724 5725 5725 5726 5727 5727 5727 5727 5728 5728 5728 5727 5727 5727 5728 5728 5728 5728 5728 5727 5727 5727 5727 5727 5727 5727 5727 5727 5728 5729 5729 5728 5727 5726 5726 5725 5724 5723 5722 5721 5720 5718 5717 5714 5712 5710 5708 5707 5706 5705 5705 5705 5704 5703 5702 5701 5700 5698 5696 5694 5692 5690 5688 5686 5683 5681 5678 5676 5673 5670 5666 5663 5660 5656
5711 5712 5713 5714 5715 5716 5717 5718 5719 5720 5721 5722 5722 5723 5724 5724 5725 5725 5725 5725 5725 5725 5724 5724 5725 5726 5726 5726 5725 5725 5724 5724 5724 5724 5724 5724 5724 5724 5724 5725 5725 5725 5724 5723 5723 5722 5721 5720 5719 5718 5716 5715 5713 5711 5709 5708 5706 5705 5704 5703 5702 5702 5701 5700 5700 5699 5697 5695 5693 5691 5689 5687 5685 5683 5681 5678 5676 5673 5670 5667 5664 5661 5657 5654 5651
5710 5711 5712 5713 5714 5714 5715 5717 5718 5718 5719 5720 5721 5721 5721 5722 5722 5722 5722 5722 5722 5722 5722 5722 5722 5722 5722 5721 5720 5720 5720 5721 5722 5722 5722 5721 5721 5721 5721 5721 5722 5721 5720 5719 5718 5717 5716 5715 5714 5712 5711 5709 5707 5706 5704 5703 5702 5701 5700 5699 5698 5698 5697 5696 5695 5694 5692 5690 5688 5687 5685 5683 5681 5678 5676 5673 5671 5668 5665 5662 5658 5655 5652 5649 5646
5709 5710 5711 5712 5712 5713 5714 5715 5716 5717 5717 5718 5719 5719 5719 5719 5719 5719 5719 5719 5719 5719 5719 5719 5718 5718 5718 5718 5717 5717 5717 5718 5718 5718 5718 5718 5718 5718 5718 5718 5717 5717 5716 5715 5713 5712 5711 5709 5708 5706 5705 5703 5702 5701 5700 5699 5698 5697 5697 5696 5695 5694 5693 5692 5691 5689 5687 5685 5684 5682 5680 5678 5676 5673 5671 5668 5665 5662 5659 5656 5653 5650 5647 5644 5641